User: anonymous   Login
Location: Great Malvern
(52.1167°N, 2.3167°W)
Time: 13:31:43
(UTC+00:00)
Language:

Cosmos 1908 Rocket - Orbit

View from above orbital plane
View from above orbital plane
View from above satellite
View from above satellite

Ground track
Ground track

The orbit data is extracted from the following two-line orbital elements,

1 18749U 88001B   21135.80420073  .00000096  00000-0  88798-5 0  9992
2 18749  82.5168  46.1784 0017270 284.4190 138.0591 14.83258527781138
Epoch (UTC): 15 May 2021 19:18:02
Eccentricity: 0.0017270
inclination: 82.5168°
perigee height: 607 km
apogee height: 631 km
right ascension of ascending node: 46.1784°
argument of perigee: 284.4190°
revolutions per day: 14.83258527
mean anomaly at epoch: 138.0591°
orbit number at epoch: 78113

The dashed part of the orbit path shows where the satellite is in the earth's shadow,  

DLR